When you browse on this site, cookies collect data to enhance your experience and personalize the content and advertising you see.
Visit our Privacy Policy to learn more. By continuing to use the site, you agree to this use of cookies and data.
  • en France
  • Liste des pays
  • À 7 jours
  • Température de l'eau
  • Carte météo
  • Widgets météo
  • user-avatar
    Se connecter

    Météo par heure à Edmundston

    Ce jour, 9 Avril, Jeudi

    Heure Température Précipitation Vent Pression Humidité
    00:00 -7°C° 0 mm 3 m/s 704 mmHg 88%
    01:00 -7°C° 0 mm 3 m/s 704 mmHg 88%
    02:00 -7°C° 0 mm 3 m/s 704 mmHg 89%
    03:00 -7°C° 0 mm 4 m/s 703 mmHg 89%
    04:00 -7°C° 0 mm 4 m/s 703 mmHg 89%
    05:00 -5°C° 0 mm 4 m/s 702 mmHg 89%
    06:00 -4°C° 0 mm 4 m/s 702 mmHg 89%
    07:00 -5°C° 0 mm 5 m/s 701 mmHg 89%
    08:00 -3°C° 0 mm 4 m/s 701 mmHg 92%
    09:00 -1°C° 0 mm 3 m/s 700 mmHg 96%
    10:00 0°C° 0 mm 3 m/s 700 mmHg 99%
    11:00 +1°C° 0 mm 3 m/s 699 mmHg 99%
    12:00 +1°C° 0 mm 3 m/s 699 mmHg 99%
    13:00 +1°C° 0 mm 4 m/s 698 mmHg 99%
    14:00 +2°C° 0 mm 3 m/s 698 mmHg 99%
    15:00 +2°C° 0 mm 3 m/s 697 mmHg 99%
    16:00 +2°C° 0 mm 3 m/s 697 mmHg 99%
    17:00 +1°C° 0.1 mm 3 m/s 697 mmHg 99%
    18:00 +1°C° 0.1 mm 3 m/s 697 mmHg 99%
    19:00 +2°C° 0.1 mm 2 m/s 697 mmHg 98%
    20:00 +1°C° 0.3 mm 3 m/s 697 mmHg 98%
    21:00 +1°C° 0.3 mm 3 m/s 698 mmHg 97%
    22:00 0°C° 0.3 mm 4 m/s 698 mmHg 97%
    23:00 -1°C° 0 mm 4 m/s 698 mmHg 96%

    Demain, 10 Avril, Vendredi

    Heure Température Précipitation Vent Pression Humidité
    00:00 0°C° 0 mm 3 m/s 699 mmHg 95%
    01:00 -1°C° 0 mm 3 m/s 699 mmHg 94%
    02:00 -2°C° 0 mm 3 m/s 700 mmHg 92%
    03:00 -4°C° 0 mm 3 m/s 700 mmHg 91%
    04:00 -5°C° 0 mm 3 m/s 701 mmHg 90%
    05:00 -5°C° 0 mm 4 m/s 701 mmHg 90%
    06:00 -5°C° 0 mm 4 m/s 702 mmHg 90%
    07:00 -5°C° 0 mm 4 m/s 703 mmHg 90%
    08:00 -5°C° 0 mm 5 m/s 703 mmHg 88%
    09:00 -5°C° 0 mm 5 m/s 703 mmHg 86%
    10:00 -5°C° 0 mm 5 m/s 703 mmHg 84%
    11:00 -4°C° 0 mm 5 m/s 703 mmHg 81%
    12:00 -4°C° 0 mm 5 m/s 703 mmHg 79%
    13:00 -4°C° 0 mm 5 m/s 703 mmHg 76%
    14:00 -4°C° 0 mm 5 m/s 703 mmHg 76%
    15:00 -3°C° 0 mm 4 m/s 703 mmHg 76%
    16:00 -4°C° 0 mm 4 m/s 702 mmHg 77%
    17:00 -5°C° 0 mm 4 m/s 703 mmHg 78%
    18:00 -7°C° 0 mm 4 m/s 704 mmHg 80%
    19:00 -8°C° 0 mm 4 m/s 704 mmHg 82%
    20:00 -9°C° 0 mm 4 m/s 705 mmHg 82%
    21:00 -9°C° 0 mm 4 m/s 705 mmHg 83%
    22:00 -11°C° 0 mm 5 m/s 706 mmHg 83%
    23:00 -10°C° 0 mm 4 m/s 706 mmHg 84%

    Après-demain, 11 Avril, Samedi

    Heure Température Précipitation Vent Pression Humidité
    00:00 -11°C° 0 mm 4 m/s 706 mmHg 85%
    01:00 -12°C° 0 mm 4 m/s 706 mmHg 86%
    02:00 -12°C° 0 mm 4 m/s 706 mmHg 87%
    03:00 -12°C° 0 mm 4 m/s 707 mmHg 87%
    04:00 -14°C° 0 mm 4 m/s 707 mmHg 88%
    05:00 -13°C° 0 mm 5 m/s 707 mmHg 86%
    06:00 -14°C° 0 mm 6 m/s 708 mmHg 84%
    07:00 -13°C° 0 mm 7 m/s 708 mmHg 82%
    08:00 -13°C° 0 mm 7 m/s 708 mmHg 78%
    09:00 -12°C° 0 mm 7 m/s 708 mmHg 73%
    10:00 -12°C° 0 mm 7 m/s 708 mmHg 69%
    11:00 -11°C° 0 mm 7 m/s 708 mmHg 68%
    12:00 -9°C° 0 mm 7 m/s 708 mmHg 67%
    13:00 -9°C° 0 mm 7 m/s 708 mmHg 66%
    14:00 -8°C° 0 mm 6 m/s 707 mmHg 68%
    15:00 -8°C° 0 mm 6 m/s 707 mmHg 70%
    16:00 -7°C° 0 mm 5 m/s 707 mmHg 72%
    17:00 -8°C° 0 mm 4 m/s 707 mmHg 73%
    18:00 -8°C° 0 mm 3 m/s 707 mmHg 74%
    19:00 -9°C° 0 mm 3 m/s 707 mmHg 76%
    20:00 -9°C° 0.2 mm 3 m/s 707 mmHg 81%
    21:00 -9°C° 0.2 mm 3 m/s 708 mmHg 86%
    22:00 -9°C° 0.2 mm 3 m/s 708 mmHg 91%
    23:00 -10°C° 0 mm 3 m/s 708 mmHg 91%

    12 Avril, Dimanche

    Heure Température Précipitation Vent Pression Humidité
    00:00 -12°C° 0 mm 3 m/s 708 mmHg 91%
    01:00 -13°C° 0 mm 3 m/s 708 mmHg 91%
    02:00 -13°C° 0 mm 3 m/s 708 mmHg 91%
    03:00 -13°C° 0 mm 3 m/s 708 mmHg 90%
    04:00 -14°C° 0 mm 3 m/s 709 mmHg 90%
    05:00 -13°C° 0 mm 3 m/s 709 mmHg 88%
    06:00 -12°C° 0 mm 3 m/s 709 mmHg 86%
    07:00 -12°C° 0 mm 3 m/s 709 mmHg 85%
    08:00 -9°C° 0 mm 3 m/s 709 mmHg 81%
    09:00 -8°C° 0 mm 3 m/s 709 mmHg 76%
    10:00 -7°C° 0 mm 3 m/s 709 mmHg 72%
    11:00 -7°C° 0.1 mm 4 m/s 708 mmHg 72%
    12:00 -7°C° 0.1 mm 4 m/s 708 mmHg 73%
    13:00 -6°C° 0.1 mm 5 m/s 708 mmHg 73%
    14:00 -5°C° 0.1 mm 4 m/s 708 mmHg 78%
    15:00 -5°C° 0.1 mm 4 m/s 708 mmHg 84%
    16:00 -7°C° 0.1 mm 4 m/s 707 mmHg 89%
    17:00 -8°C° 0.1 mm 4 m/s 708 mmHg 85%
    18:00 -8°C° 0.1 mm 3 m/s 708 mmHg 81%
    19:00 -9°C° 0.1 mm 3 m/s 708 mmHg 77%
    20:00 -9°C° 0 mm 2 m/s 708 mmHg 77%
    21:00 -9°C° 0 mm 2 m/s 708 mmHg 78%
    22:00 -10°C° 0 mm 2 m/s 708 mmHg 78%
    23:00 -9°C° 0 mm 1 m/s 708 mmHg 79%

    13 Avril, Lundi

    Heure Température Précipitation Vent Pression Humidité
    00:00 -10°C° 0 mm 1 m/s 708 mmHg 80%
    01:00 -10°C° 0 mm 1 m/s 708 mmHg 81%
    02:00 -10°C° 0 mm 1 m/s 708 mmHg 81%
    03:00 -9°C° 0 mm 1 m/s 708 mmHg 81%
    04:00 -9°C° 0 mm 1 m/s 707 mmHg 81%
    05:00 -9°C° 0 mm 1 m/s 707 mmHg 81%
    06:00 -8°C° 0 mm 1 m/s 707 mmHg 82%
    07:00 -7°C° 0 mm 1 m/s 707 mmHg 82%
    08:00 -6°C° 0 mm 1 m/s 707 mmHg 79%
    09:00 -3°C° 0 mm 1 m/s 707 mmHg 76%
    10:00 -3°C° 0 mm 0 m/s 706 mmHg 73%
    11:00 -2°C° 0 mm 0 m/s 706 mmHg 73%
    12:00 -2°C° 0 mm 0 m/s 706 mmHg 72%
    13:00 -1°C° 0 mm 0 m/s 705 mmHg 72%
    14:00 -1°C° 0 mm 0 m/s 705 mmHg 73%
    15:00 -1°C° 0 mm 0 m/s 705 mmHg 75%
    16:00 0°C° 0 mm 1 m/s 705 mmHg 77%
    17:00 -1°C° 0 mm 1 m/s 705 mmHg 79%
    18:00 -3°C° 0 mm 1 m/s 705 mmHg 81%
    19:00 -4°C° 0 mm 1 m/s 705 mmHg 83%
    20:00 -4°C° 0 mm 1 m/s 706 mmHg 83%
    21:00 -6°C° 0 mm 1 m/s 706 mmHg 84%
    22:00 -6°C° 0 mm 1 m/s 706 mmHg 84%
    23:00 -7°C° 0 mm 2 m/s 706 mmHg 83%

    14 Avril, Mardi

    Heure Température Précipitation Vent Pression Humidité
    00:00 -8°C° 0 mm 2 m/s 706 mmHg 83%
    01:00 -8°C° 0 mm 2 m/s 706 mmHg 83%
    02:00 -8°C° 0 mm 2 m/s 706 mmHg 83%
    03:00 -8°C° 0 mm 2 m/s 706 mmHg 83%
    04:00 -8°C° 0 mm 2 m/s 706 mmHg 83%
    05:00 -7°C° 0 mm 2 m/s 706 mmHg 83%
    06:00 -6°C° 0 mm 2 m/s 706 mmHg 83%
    07:00 -5°C° 0 mm 2 m/s 706 mmHg 83%
    08:00 -4°C° 0 mm 2 m/s 706 mmHg 83%
    09:00 -2°C° 0 mm 2 m/s 705 mmHg 84%
    10:00 -1°C° 0 mm 2 m/s 705 mmHg 84%
    11:00 +1°C° 0 mm 2 m/s 704 mmHg 85%
    12:00 +2°C° 0 mm 2 m/s 704 mmHg 86%
    13:00 +1°C° 0 mm 3 m/s 703 mmHg 87%
    14:00 +1°C° 0 mm 3 m/s 702 mmHg 89%
    15:00 +1°C° 0 mm 3 m/s 702 mmHg 91%
    16:00 +1°C° 0 mm 3 m/s 701 mmHg 93%
    17:00 +1°C° 0 mm 3 m/s 701 mmHg 89%
    18:00 0°C° 0 mm 3 m/s 700 mmHg 85%
    19:00 0°C° 0 mm 3 m/s 700 mmHg 81%
    20:00 0°C° 0 mm 3 m/s 700 mmHg 79%
    21:00 0°C° 0 mm 3 m/s 699 mmHg 78%
    22:00 0°C° 0 mm 3 m/s 699 mmHg 76%
    23:00 0°C° 0 mm 3 m/s 699 mmHg 79%
    Voir plus